Wind_Speed
31 32 30 28 27 27 26 24 22 23 22 20 22 26 26 25 25 25 26 27 28 29 29 28 27 26 25 25 25 24 23 23 23 22 21 22 23 22 22 21 20 19
34 33 32 28 26 26 25 23 21 22 22 22 24 27 26 24 26 26 27 29 30 29 28 27 27 26 25 26 26 24 23 23 23 22 21 22 22 22 23 22 20 19
33 31 31 29 26 24 23 22 21 20 21 22 25 26 26 25 26 27 28 30 30 28 27 27 27 27 26 26 25 23 22 23 22 21 21 22 23 23 23 21 20 20
27 28 29 28 25 22 22 22 21 20 20 21 24 24 24 25 26 27 28 28 28 27 26 26 26 26 26 25 24 22 22 23 22 21 22 23 23 24 23 22 21 21
26 27 28 26 23 22 22 22 22 21 20 21 24 24 23 24 25 27 28 28 27 26 25 25 25 25 25 25 24 23 23 24 23 22 23 24 25 25 24 23 23 22
27 26 24 21 21 22 22 22 23 22 20 21 23 24 24 24 24 26 28 28 27 25 24 25 26 25 24 25 26 25 24 24 24 23 24 25 26 26 25 24 23 22
25 25 22 18 19 23 23 22 23 22 21 21 23 24 26 26 25 26 28 28 27 25 25 26 26 26 26 27 27 26 25 25 24 24 25 26 26 26 25 24 23 22
23 23 21 17 18 22 23 23 23 23 22 22 23 25 26 27 27 28 27 27 28 27 26 27 28 28 29 28 28 26 26 26 25 25 26 26 26 25 25 24 23 22
21 22 20 17 18 20 22 22 22 23 24 23 24 25 27 28 30 30 28 28 29 29 28 29 29 29 28 28 27 27 27 26 26 26 27 27 26 26 25 24 23 23
19 22 21 18 18 20 22 22 22 23 24 24 24 24 25 27 30 32 31 30 31 31 30 30 29 28 28 28 28 28 27 27 27 27 27 27 27 26 25 24 23 24
13 16 19 20 21 24 25 24 23 23 24 25 24 22 23 26 29 30 30 30 30 30 29 28 28 28 28 28 28 28 28 28 28 28 28 28 28 27 26 25 25 25
12 13 16 18 21 24 27 27 25 23 25 26 24 21 21 25 26 26 26 28 29 28 27 27 27 27 28 28 28 28 28 29 29 29 30 30 29 28 27 27 26 26
16 16 17 17 18 21 24 27 26 24 25 27 25 21 21 23 23 23 25 27 28 29 28 28 28 29 29 28 28 28 29 29 29 29 29 29 29 28 27 27 26 26
18 19 19 19 18 20 22 24 26 25 25 27 25 22 24 25 25 25 27 27 28 29 29 29 30 30 30 29 29 29 28 28 28 27 27 27 27 26 26 26 26 26
20 20 20 21 21 20 19 20 24 25 24 26 26 25 27 28 28 29 29 28 27 28 29 30 32 32 32 31 29 28 27 26 26 25 25 24 25 25 25 26 27 28
21 21 21 21 21 21 19 17 21 23 23 25 27 28 29 29 29 30 30 29 28 29 31 33 34 34 32 30 28 27 26 26 25 25 24 24 25 26 27 28 29 29
23 23 22 21 22 22 22 21 21 21 22 24 28 30 29 29 31 31 30 28 27 29 32 34 34 33 31 29 28 27 27 26 25 25 25 25 26 27 28 28 29 29
25 25 24 24 25 25 25 26 25 24 23 24 27 29 28 28 31 33 30 27 27 29 32 33 32 30 29 29 28 27 26 26 26 25 25 26 27 28 28 28 28 29
26 27 26 26 26 26 27 28 28 27 26 25 27 31 30 28 31 32 30 27 27 29 32 32 31 30 29 29 28 27 27 26 26 26 25 26 27 28 28 28 29 29
28 28 28 27 27 26 27 29 28 27 28 26 27 32 33 30 32 34 32 31 31 31 32 32 31 31 30 29 28 28 28 27 26 26 25 25 26 27 28 28 29 30
29 28 27 27 28 27 29 31 29 28 29 27 27 32 34 31 33 36 35 34 35 33 33 32 32 31 31 30 29 28 28 28 27 26 25 25 26 27 26 27 27 29
29 29 27 27 28 29 31 32 32 30 29 27 28 33 35 32 33 37 36 34 35 34 33 33 33 32 31 30 29 28 29 29 28 27 26 26 26 26 25 25 26 27
28 29 27 26 28 31 31 31 32 31 30 29 29 33 35 34 35 39 39 35 34 34 34 34 33 31 31 30 29 28 29 30 29 29 28 27 27 27 26 26 26 26
27 29 27 27 29 32 32 32 33 32 32 31 30 32 36 36 37 42 41 37 35 34 35 35 33 30 31 30 29 28 28 28 28 28 28 28 28 28 28 28 27 27
25 27 26 26 28 31 32 32 32 32 32 32 31 32 35 36 38 42 41 38 37 37 36 35 31 29 29 30 30 29 28 28 28 28 29 30 30 29 29 29 30 31
26 26 26 25 25 29 32 32 32 32 32 32 31 33 37 38 39 42 41 39 38 40 39 35 31 30 31 31 31 31 31 30 29 29 30 30 29 28 28 28 30 32
Wind_Direction
244 242 239 237 238 242 244 245 249 247 240 233 232 230 226 223 221 220 218 216 216 219 219 218 219 222 224 225 223 221 221 223 225 226 228 230 231 231 232 233 236 239
237 240 240 240 243 243 243 245 248 250 242 232 231 233 229 225 222 218 216 215 215 218 220 218 217 218 220 223 223 220 220 222 224 226 229 231 231 231 232 234 236 240
231 235 238 240 245 246 245 244 245 249 245 234 230 230 227 224 222 218 216 217 216 216 218 219 218 214 216 220 221 220 221 224 224 225 228 230 231 232 232 234 236 239
235 235 236 239 242 243 243 239 238 244 246 236 228 224 222 222 220 218 218 218 217 216 216 219 220 217 216 219 220 219 222 225 225 226 227 227 230 232 233 233 234 237
247 239 237 242 241 237 237 234 233 240 244 238 231 227 224 223 221 222 221 219 218 218 216 217 220 219 219 220 221 221 224 227 226 225 226 228 230 231 232 233 234 236
248 240 238 243 237 231 232 231 231 237 241 239 237 234 230 227 226 226 223 219 218 220 219 219 219 219 221 222 221 221 223 226 226 225 226 229 231 232 233 234 235 237
242 238 239 241 232 228 229 228 231 236 239 239 237 235 231 229 230 230 226 222 220 220 222 222 222 221 221 221 221 221 222 225 227 228 229 230 231 232 233 235 238 241
237 236 237 237 233 230 229 227 228 231 234 235 233 233 232 230 230 231 229 225 222 222 224 224 223 223 222 223 223 223 225 227 229 230 231 232 232 233 235 238 241 245
237 232 235 239 239 236 232 230 229 227 228 229 228 231 232 232 232 231 229 227 222 221 224 225 223 222 223 224 224 225 228 231 232 233 234 235 236 238 240 241 244 249
248 236 238 245 245 241 238 236 232 227 224 223 224 229 233 236 235 229 228 230 224 219 223 225 222 221 222 223 225 227 230 233 236 238 240 240 240 242 243 245 249 253
265 245 247 253 250 245 243 242 238 230 224 221 222 228 234 236 230 224 226 229 222 218 223 226 224 222 223 223 225 227 230 233 237 240 243 244 244 244 245 249 253 255
271 256 260 268 263 253 249 246 241 233 227 224 223 226 232 230 222 219 224 225 217 215 219 221 224 225 225 225 227 228 231 234 238 241 243 245 245 247 249 252 254 253
272 264 268 278 275 267 262 254 242 233 229 225 221 217 221 222 215 211 217 219 216 214 215 217 221 225 227 228 229 231 234 236 239 241 242 244 246 248 250 251 251 252
273 268 270 277 275 272 273 261 242 230 228 226 222 215 215 218 217 216 217 217 217 216 216 219 222 225 227 228 229 232 234 236 238 240 240 242 244 246 248 249 250 253
273 271 271 276 275 271 268 253 235 227 227 228 225 221 219 221 226 230 225 216 216 218 220 222 223 224 226 227 229 232 234 235 237 237 238 239 242 245 247 250 252 253
269 269 269 270 270 267 260 243 228 226 230 231 230 229 226 223 227 230 224 216 218 221 222 224 224 223 225 226 228 231 233 234 235 236 238 241 244 247 249 249 251 251
263 264 265 264 263 262 258 247 238 236 237 235 234 234 231 228 228 224 219 221 226 225 224 226 225 223 224 226 228 231 233 235 236 238 241 244 247 249 249 250 250 250
262 262 261 261 260 259 258 254 249 246 244 241 237 233 230 232 230 221 218 228 234 229 228 229 228 227 227 228 230 232 235 237 239 241 244 246 248 249 249 250 251 249
262 262 261 261 260 259 258 256 252 249 248 246 241 234 231 232 227 219 222 235 239 235 234 233 233 232 231 231 232 235 237 239 242 245 247 247 247 248 249 249 249 248
261 263 263 262 260 260 258 254 251 251 251 250 245 237 233 232 227 221 227 238 241 239 238 237 237 237 235 234 234 236 238 240 244 247 247 245 246 248 249 248 246 245
259 262 264 262 260 259 256 251 248 249 250 249 245 237 233 235 230 224 228 236 240 240 239 238 239 240 238 237 237 238 239 240 244 246 246 244 245 247 249 248 246 244
260 263 265 263 259 257 256 250 245 247 250 249 243 235 233 236 233 226 227 234 238 237 237 237 239 240 241 243 242 240 240 240 242 244 245 244 244 245 247 248 248 246
264 268 269 265 259 257 256 252 246 247 249 248 243 235 231 232 230 225 227 233 236 235 235 236 239 241 243 246 245 241 240 241 242 244 245 244 244 245 246 246 246 247
264 270 272 269 262 258 257 253 247 245 246 246 243 236 230 230 229 227 228 232 235 236 236 236 238 241 244 246 245 241 239 240 244 247 249 247 246 246 246 246 246 246
264 267 272 271 265 261 259 253 244 241 244 245 243 237 232 231 230 230 232 234 234 235 235 235 238 244 249 249 246 242 241 241 242 246 251 252 250 249 248 247 247 247
269 268 271 272 265 260 258 251 241 239 242 244 242 237 233 231 229 229 232 235 237 236 234 235 238 244 249 252 251 249 248 247 244 243 249 254 255 254 254 252 250 249
Height
5752 5752 5753 5754 5755 5757 5758 5759 5759 5759 5759 5760 5761 5762 5762 5763 5764 5765 5767 5770 5772 5773 5774 5775 5777 5779 5781 5783 5784 5785 5786 5788 5789 5790 5791 5792 5793 5794 5795 5796 5797 5798
5745 5747 5750 5752 5753 5754 5755 5757 5757 5757 5758 5759 5759 5759 5760 5762 5762 5763 5765 5767 5768 5770 5772 5773 5774 5776 5778 5781 5781 5782 5783 5785 5786 5788 5788 5790 5791 5792 5793 5794 5795 5796
5741 5743 5746 5748 5749 5751 5753 5754 5755 5755 5756 5757 5757 5757 5758 5760 5761 5761 5762 5764 5766 5768 5770 5771 5772 5773 5775 5778 5779 5779 5780 5782 5784 5786 5787 5788 5789 5790 5791 5792 5793 5794
5739 5741 5743 5746 5747 5748 5749 5751 5752 5753 5754 5755 5755 5755 5757 5758 5759 5759 5760 5762 5764 5766 5768 5769 5771 5772 5773 5775 5776 5777 5778 5779 5782 5784 5785 5786 5786 5788 5789 5790 5791 5791
5736 5738 5741 5743 5744 5745 5746 5748 5749 5750 5752 5753 5753 5754 5755 5756 5757 5758 5758 5760 5762 5764 5765 5767 5769 5770 5771 5772 5773 5774 5776 5777 5780 5782 5783 5784 5784 5785 5786 5787 5788 5789
5734 5737 5739 5740 5741 5742 5743 5745 5746 5746 5748 5750 5751 5752 5753 5754 5755 5756 5757 5758 5760 5762 5763 5765 5767 5767 5768 5770 5771 5773 5774 5776 5777 5779 5781 5782 5782 5783 5784 5785 5786 5787
5732 5735 5737 5738 5738 5739 5740 5742 5743 5744 5744 5745 5747 5748 5750 5752 5753 5753 5755 5756 5757 5759 5760 5762 5764 5765 5766 5768 5769 5771 5773 5774 5775 5777 5778 5779 5780 5781 5782 5782 5783 5784
5730 5732 5735 5736 5736 5737 5738 5738 5739 5740 5741 5742 5743 5745 5747 5749 5750 5751 5753 5753 5754 5756 5758 5759 5761 5763 5764 5766 5767 5769 5770 5772 5773 5774 5775 5776 5778 5779 5779 5780 5781 5782
5729 5731 5733 5734 5734 5735 5735 5735 5736 5737 5738 5740 5740 5742 5744 5747 5748 5749 5750 5751 5752 5754 5755 5757 5759 5761 5762 5763 5764 5766 5767 5769 5770 5772 5773 5774 5775 5776 5776 5777 5778 5779
5728 5729 5730 5731 5732 5732 5733 5733 5733 5734 5736 5737 5738 5740 5742 5744 5745 5746 5747 5748 5749 5751 5753 5754 5756 5758 5759 5760 5761 5763 5764 5766 5767 5769 5770 5771 5772 5773 5774 5775 5775 5776
5726 5727 5728 5729 5729 5729 5729 5730 5731 5732 5733 5734 5735 5737 5738 5739 5741 5742 5743 5745 5746 5748 5750 5752 5754 5755 5757 5757 5758 5760 5761 5763 5764 5765 5767 5768 5769 5770 5771 5772 5773 5773
5724 5725 5726 5727 5726 5725 5725 5726 5727 5729 5730 5731 5732 5734 5735 5736 5737 5739 5741 5742 5743 5745 5748 5750 5752 5753 5754 5755 5756 5757 5758 5759 5761 5762 5764 5765 5766 5767 5768 5769 5770 5770
5724 5723 5723 5723 5723 5722 5722 5723 5724 5726 5727 5727 5728 5731 5733 5734 5735 5737 5738 5740 5741 5743 5745 5747 5749 5751 5752 5752 5753 5754 5755 5756 5758 5759 5761 5762 5763 5764 5765 5766 5767 5767
5721 5721 5721 5720 5720 5720 5720 5721 5722 5724 5725 5725 5726 5727 5730 5732 5734 5735 5736 5737 5739 5741 5743 5745 5747 5748 5748 5749 5750 5751 5752 5753 5755 5756 5758 5759 5760 5761 5762 5763 5763 5764
5718 5718 5718 5718 5718 5718 5718 5718 5720 5722 5723 5724 5725 5725 5726 5729 5731 5732 5734 5735 5737 5739 5741 5742 5743 5744 5745 5746 5747 5748 5749 5751 5752 5753 5755 5756 5757 5758 5759 5759 5759 5760
5715 5715 5716 5716 5716 5716 5716 5717 5718 5720 5721 5722 5723 5723 5723 5725 5727 5729 5731 5733 5734 5736 5737 5738 5739 5741 5742 5743 5744 5745 5747 5748 5749 5750 5752 5753 5754 5755 5755 5755 5756 5756
5713 5713 5713 5713 5713 5713 5714 5715 5716 5718 5719 5720 5720 5720 5721 5722 5724 5726 5728 5730 5731 5733 5734 5735 5736 5738 5739 5740 5741 5742 5743 5745 5746 5747 5749 5750 5750 5751 5751 5751 5752 5753
5710 5710 5710 5710 5710 5711 5711 5712 5713 5715 5715 5716 5716 5717 5718 5719 5721 5723 5725 5727 5728 5730 5730 5731 5733 5735 5736 5737 5738 5739 5740 5741 5743 5744 5745 5746 5746 5746 5747 5748 5749 5750
5707 5707 5707 5707 5707 5707 5707 5708 5709 5710 5711 5711 5712 5713 5714 5716 5718 5720 5722 5723 5725 5726 5727 5728 5729 5731 5732 5734 5735 5736 5737 5738 5739 5740 5741 5742 5742 5742 5743 5744 5745 5746
5703 5703 5703 5704 5704 5704 5704 5704 5705 5706 5706 5707 5708 5709 5710 5712 5714 5717 5718 5719 5721 5722 5723 5724 5726 5728 5729 5730 5731 5733 5734 5735 5736 5736 5737 5738 5739 5739 5740 5741 5741 5742
5700 5699 5699 5700 5700 5700 5699 5699 5701 5702 5702 5703 5704 5704 5706 5708 5710 5713 5714 5715 5716 5718 5719 5720 5723 5724 5725 5726 5728 5729 5731 5731 5732 5733 5734 5735 5736 5736 5736 5737 5737 5738
5696 5695 5696 5696 5696 5696 5695 5695 5697 5698 5698 5699 5700 5701 5702 5704 5706 5708 5710 5711 5712 5713 5715 5717 5719 5721 5722 5723 5724 5725 5726 5727 5728 5729 5730 5732 5733 5733 5733 5734 5734 5734
5692 5691 5691 5692 5691 5691 5691 5692 5693 5694 5694 5695 5696 5697 5699 5701 5703 5704 5705 5707 5708 5709 5711 5713 5716 5718 5718 5719 5720 5721 5722 5723 5724 5725 5727 5728 5730 5730 5730 5731 5731 5731
5688 5687 5687 5687 5687 5686 5687 5688 5689 5690 5690 5691 5692 5693 5695 5698 5699 5699 5701 5703 5705 5706 5707 5709 5712 5714 5715 5716 5717 5717 5718 5719 5720 5722 5723 5724 5726 5727 5727 5728 5728 5728
5685 5684 5683 5683 5683 5682 5682 5683 5684 5686 5687 5687 5689 5690 5691 5694 5695 5695 5698 5700 5701 5702 5704 5706 5709 5710 5711 5712 5713 5713 5714 5715 5716 5718 5719 5720 5721 5722 5723 5724 5724 5725
5680 5680 5679 5679 5678 5678 5678 5678 5680 5681 5683 5684 5685 5686 5687 5689 5691 5692 5694 5696 5697 5699 5700 5703 5705 5707 5707 5708 5709 5710 5711 5712 5712 5713 5715 5716 5717 5718 5719 5720 5720 5721